Pecs, Hungary

9:01 PM CET on February 13, 2016 (GMT +0100)
Pecs

Weather History for LHPP - October, 2012

Change the Weather History Date:

Wednesday, October 24, 2012

  Actual Average Record
Temperature  
Mean Temperature 48 °F -  
Max Temperature 50 °F 51 °F - ()
Min Temperature 46 °F 38 °F - ()
Degree Days  
Heating Degree Days 17    
Moisture  
Dew Point 48 °F    
Average Humidity 97    
Maximum Humidity 100    
Minimum Humidity 91    
Precipitation  
Precipitation 0.00 in 0.07 in - ()
Sea Level Pressure  
Sea Level Pressure 30.13 in    
Wind  
Wind Speed 2 mph ()    
Max Wind Speed 6 mph    
Max Gust Speed -    
Visibility 0.8 miles    
Events Fog    
T = Trace of Precipitation, MM = Missing Value Source: Averaged Metar Reports

Daily Weather History Graph

Daily Weather History Graph

Search for Another Location

Airport or City:

Trip Planner

Search our weather history database for the weather conditions in past years. The results will help you decide how hot, cold, wet, or windy it might be!

Date:

Astronomy

Oct. 24, 2012 Rise Set
Actual Time 7:16 AM CEST 5:45 PM CEST
Civil Twilight 6:45 AM CEST 6:15 PM CEST
Nautical Twilight 6:11 AM CEST 6:50 PM CEST
Astronomical Twilight 5:36 AM CEST 7:25 PM CEST
Moon 3:05 PM CEST (10/24) 1:36 AM CEST (10/24)
Length of Visible Light 11h 29m
Length of Day
10h 28m
Waxing Gibbous, 73% of the Moon is Illuminated
Oct 24
Waxing Gibbous
Oct 29
Full
Nov 7
Last Quarter
Nov 13
New
Nov 20
First Quarter

Hourly Weather History & Observations

Time (CEST) Temp. Windchill Dew Point Humidity Pressure Visibility Wind Dir Wind Speed Gust Speed Precip Events Conditions
12:45 AM 48.2 °F - 46.4 °F 93% 30.18 in 0.1 mi West 4.6 mph - N/A Fog Fog
1:45 AM 46.4 °F 45.2 °F 46.4 °F 100% 30.18 in 0.1 mi West 3.5 mph - N/A Fog Fog
2:00 AM 47 °F - 46 °F 97% 30.20 in 0 mi West 4.5 mph - - Fog Heavy Fog
2:45 AM 46.4 °F 43.5 °F 46.4 °F 100% 30.18 in 0.1 mi West 5.8 mph - N/A Fog Fog
3:45 AM 46.4 °F - 46.4 °F 100% 30.15 in 0.1 mi NW 2.3 mph - N/A Fog Fog
4:45 AM 46.4 °F - 46.4 °F 100% 30.15 in 0.1 mi WNW 1.2 mph - N/A Fog Fog
5:45 AM 46.4 °F - 46.4 °F 100% 30.15 in 0.1 mi Calm Calm - N/A Fog Fog
6:15 AM 46.4 °F - 46.4 °F 100% 30.15 in 0.1 mi Calm Calm - N/A Fog Fog
6:45 AM 46.4 °F - 46.4 °F 100% 30.15 in 0.1 mi Calm Calm - N/A Fog Fog
7:00 AM - - - N/A% - 0.1 mi Variable 3.5 mph - N/A Fog Fog
7:15 AM 46.4 °F - 46.4 °F 100% 30.15 in 0.1 mi ENE 2.3 mph - N/A   Light Drizzle
7:45 AM 46.4 °F - 46.4 °F 100% 30.15 in 0.1 mi East 1.2 mph - N/A Fog Fog
8:00 AM 47 °F - 46 °F 94% 30.17 in 0 mi East 2.2 mph - - Fog Heavy Fog
8:15 AM 46.4 °F - 46.4 °F 100% 30.15 in 0.1 mi ENE 2.3 mph - N/A   Light Drizzle
8:45 AM 46.4 °F - 46.4 °F 100% 30.15 in 0.1 mi NE 2.3 mph - N/A   Light Drizzle
9:15 AM 46.4 °F 45.2 °F 46.4 °F 100% 30.15 in 0.1 mi ENE 3.5 mph - N/A   Light Drizzle
9:45 AM 46.4 °F - 46.4 °F 100% 30.15 in 0.1 mi NE 2.3 mph - N/A Fog Fog
10:00 AM - - - N/A% - 0.1 mi Variable 3.5 mph - N/A Fog Fog
10:15 AM 48.2 °F - 46.4 °F 93% 30.15 in 0.1 mi East 2.3 mph - N/A Fog Fog
10:40 AM 48.2 °F - 46.4 °F 93% 30.18 in - North - - N/A   Unknown
10:45 AM 48.2 °F - 46.4 °F 93% 30.15 in 0.2 mi NE 1.2 mph - N/A Fog Fog
11:15 AM 48.2 °F - 48.2 °F 100% 30.18 in 0.2 mi Calm Calm - N/A Fog Fog
11:45 AM 48.2 °F - 48.2 °F 100% 30.18 in 0.4 mi South 1.2 mph - N/A Fog Fog
12:15 PM 48.2 °F - 48.2 °F 100% 30.15 in 0.3 mi South 1.2 mph - N/A Fog Fog
12:33 PM 48.2 °F - 48.2 °F 100% 30.18 in 0.8 mi Calm Calm - N/A   Overcast
12:45 PM 48.2 °F - 48.2 °F 100% 30.15 in 1.1 mi Calm Calm - N/A   Overcast
1:00 PM - - - N/A% - 0.4 mi Variable 3.5 mph - N/A Fog Fog
1:15 PM 50.0 °F - 48.2 °F 94% 30.15 in 1.0 mi Calm Calm - N/A   Overcast
1:39 PM 50.0 °F - 48.2 °F 94% 30.15 in 1.5 mi WSW 2.3 mph - N/A   Overcast
2:00 PM 49 °F - 49 °F 98% 30.15 in 1 mi WSW 2.2 mph - -   Mist
2:15 PM 50.0 °F - 48.2 °F 94% 30.12 in 1.6 mi West 2.3 mph - N/A   Overcast
2:45 PM 50.0 °F - 48.2 °F 94% 30.12 in 1.6 mi NNW 3.5 mph - N/A   Overcast
3:15 PM 50.0 °F - 50.0 °F 100% 30.12 in 1.6 mi North 3.5 mph - N/A   Overcast
3:45 PM 50.0 °F - 50.0 °F 100% 30.12 in 1.6 mi Calm Calm - N/A   Overcast
4:00 PM - - - N/A% - 1.9 mi Variable 3.5 mph - N/A   Overcast
4:15 PM 50.0 °F - 50.0 °F 100% 30.12 in 1.6 mi SW 2.3 mph - N/A   Overcast
4:45 PM 50.0 °F - 50.0 °F 100% 30.12 in 1.6 mi West 4.6 mph - N/A   Overcast
5:15 PM 50.0 °F - 50.0 °F 100% 30.09 in 1.6 mi NNW 2.3 mph - N/A   Overcast
5:45 PM 50.0 °F - 48.2 °F 94% 30.09 in 1.6 mi WNW 2.3 mph - N/A   Overcast
6:15 PM 50.0 °F - 48.2 °F 94% 30.09 in 1.6 mi Calm Calm - N/A   Overcast
6:45 PM 50.0 °F - 48.2 °F 94% 30.09 in 1.6 mi Calm Calm - N/A   Overcast
7:15 PM 50.0 °F - 48.2 °F 94% 30.09 in 1.6 mi SSW 2.3 mph - N/A   Overcast
7:45 PM 50.0 °F - 48.2 °F 94% 30.09 in 1.6 mi SSW 3.5 mph - N/A   Overcast
8:00 PM 50 °F - 48 °F 91% 30.11 in 2 mi SSW 2.2 mph - -   Mist
8:15 PM 50.0 °F - 48.2 °F 94% 30.09 in 1.6 mi SW 3.5 mph - N/A   Overcast
8:45 PM 50.0 °F - 48.2 °F 94% 30.09 in 1.6 mi SW 2.3 mph - N/A   Overcast
9:15 PM 50.0 °F - 48.2 °F 94% 30.09 in 1.6 mi SW 3.5 mph - N/A   Overcast
9:45 PM 50.0 °F - 48.2 °F 94% 30.09 in 1.2 mi WSW 2.3 mph - N/A   Overcast
10:08 PM 50.0 °F - 48.2 °F 94% 30.09 in 0.4 mi SW 3.5 mph - N/A Fog Fog
10:45 PM 48.2 °F - 48.2 °F 100% 30.09 in 0.4 mi SW 3.5 mph - N/A Fog Fog
11:45 PM 50.0 °F - 48.2 °F 94% 30.09 in 0.4 mi WSW 2.3 mph - N/A Fog Fog